Location: Beetenbrück
(52.8113°N, 9.5946°E)
Time: 21:50:41
(UTC+00:00)

ARGOS Delta rocket - Pass Details

Date: 14 April 2026
Orbit: 631 x 826 km, 96.5° (Epoch: 12 May)

Event Time Altitude Azimuth Distance (km) Brightness Sun altitude
Rises 23:47:52 0° 8° (N) 2,941 8.3 -27.2°
Reaches altitude 10° 23:50:05 10° 4° (N) 2,034 7.2 -27.2°
Enters shadow 23:53:51 49° 314° (NW) 841 4.3 -27.1°
